Regional Weather Roundup
Issued by NWS Newport/Morehead, NC

Current Version | Previous Version | Text Only | Print | Product List | Glossary Off
Versions: 1 2 3 4 5 6 7 8 9 10 11 12 13 14 15 16 17 18 19 20 21 22 23 24 25 26 27 28 29 30 31 32 33 34 35 36 37 38 39 40 41 42 43 44 45 46 47 48 49 50
000 ASUS42 KMHX 030414 RWRMHX WEATHER ROUNDUP FOR EASTERN NORTH CAROLINA NATIONAL WEATHER SERVICE NEWPORT/MOREHEAD CITY NC 1200 AM EDT THU SEP 03 2015 NOTE: "FAIR" INDICATES FEW OR NO CLOUDS BELOW 12,000 FEET WITH NO SIGNIFICANT WEATHER AND/OR OBSTRUCTIONS TO VISIBILITY NCZ015>017-031-032-045>047-102-103-030500- NORTH COAST CITY SKY/WX TMP DP RH WIND PRES REMARKS EDENTON RAIN 72 67 85 NW9 29.98R ELIZABETH CITY CLOUDY 72 70 93 W10 29.97S KITTY HAWK CLOUDY 77 73 89 W5 29.95R MANTEO CLOUDY 78 74 88 NW3 29.96R $$ NCZ045>047-081-094-103-104-030500- CENTRAL COAST CITY SKY/WX TMP DP RH WIND PRES REMARKS FRISCO PTCLDY 79 73 82 SW6 29.96S SWANQUARTER N/A 79 N/A N/A NW5 29.94R $$ NCZ095-097-098-100-101-030500- SOUTHERN COAST CITY SKY/WX TMP DP RH WIND PRES REMARKS BEAUFORT N/A 79 76 90 S6 29.97S CEDAR ISLAND N/A 77 N/A N/A S5 30.00S JACKSONVILLE CLEAR 77 73 87 SW6 29.96F PINEY ISLAND CLEAR N/A N/A N/A SW5 29.96F WILMINGTON PTCLDY 78 74 87 SW7 29.98S $$ NCZ011>013-027>030-043-044-078>080-089-090>093-098-030500- COASTAL PLAIN CITY SKY/WX TMP DP RH WIND PRES REMARKS AHOSKIE LGT RAIN 69 68 97 CALM 29.96F CLINTON CLEAR 77 73 90 CALM 29.97S ELIZABETHTOWN PTCLDY 78 74 87 CALM 29.98S GOLDSBORO MOCLDY 77 69 77 NE15G21 29.98R GREENVILLE HVY RAIN 72 70 94 NE15 30.03F HAVELOCK PTCLDY 77 74 90 S3 29.98S KENANSVILLE N/A 74 73 96 CALM 29.98S KINSTON MOCLDY 75 68 80 N16G23 30.01R NEW BERN MOCLDY 77 74 90 SW5 29.97F RICHLANDS CLEAR 73 68 83 SW3 29.97F ROCKY MOUNT TSTM 71 70 96 SE7 29.98F FOG WASHINGTON RAIN 69 67 94 N5 30.01S WHITEVILLE PTCLDY 77 73 86 SW3 29.98S $$ AMZ130-135-150-152-154-156-158-170-250-252-270-ANZ085-086-088-633-658-670-030500- MARINE OBSERVATIONS STATION/POSITION TIME TEMP WIND PRES WAVE SWELL AIR SEA DIR/SP/G HT/PER HT/PER (UTC) (F) (DEG/KT/KT) (MB) (FT/S) (FT/S) CHESAPEAKE LIGHT 0400 77 270/ 15/ 16 1014.5 64 E VA BEACH 0350 79 79 260/ 8/ 10 1013.4 2/ 9 2/ 9 DUCK 0300 78 79 250/ 8/ 9 1013.7 2 E DUCK 0311 81 N/A 1/13 OREGON INLET 0300 80 84 280/ 5/ 7 1014.6 13E OREGON INLT 0400 81 N/A 1/13 HATTERAS CG 0300 80 83 220/ 4/ 7 1014.4 DIAMOND BUOY 0350 82 86 200/ 4/ 4 1014.5 1/13 2/13 CAPE LOOKOUT 0400 80 230/ 6/ 7 1014.6 BEAUFORT LAB 0300 81 82 220/ 4/ 5 1014.3 30 SE NEW RVR IN 0308 82 82 250/ 10/ 12 1015.4 30 SE NEW RVR IN 0325 82 N/A 2/10 27 SE WRIGHTSVLE 0300 79 82 250/ 10/ 12 N/A 5 SE WRIGHTSVLE NOT AVBL 225 S CAPE HAT 0350 82 84 330/ 2/ 4 1015.2 2/13 2/13 41 SE CHARLESTON 0350 82 84 230/ 4/ 6 1015.1 2/ 9 2/ 9 $$

USA.gov is the U.S. government's official web portal to all federal, state and local government web resources and services.